Temp
68 68 66 67 65 64 64 62 62 62 61 60 60 61 60 60 59 58 57 57 56 55 55 54 55 55 55 55 55 58 56 56
60 59 60 60 60 60 62 60 59 62 62 63 62 61 60 59 58 56 56 55 55 54 54 53 53 52 52 52 52 53 55 56
53 55 58 57 57 58 59 59 59 60 60 59 59 59 57 57 57 55 55 54 54 54 52 52 51 50 50 50 50 50 52 55
47 50 55 57 54 55 55 57 57 57 56 58 57 57 56 55 55 54 53 53 53 52 52 51 50 50 49 49 49 48 47 50
52 53 54 54 53 52 54 55 55 55 53 53 52 52 51 53 52 53 53 52 51 51 51 50 49 49 48 49 50 48 48 46
51 51 54 54 53 48 50 52 52 52 52 51 52 50 51 52 52 49 51 52 51 51 50 49 48 50 49 48 48 48 49 47
50 51 52 49 47 51 50 50 51 51 51 50 49 48 48 49 50 50 52 52 52 50 49 49 49 49 48 48 48 47 47 47
51 50 50 50 48 50 49 49 51 50 50 50 49 48 48 48 49 50 49 50 49 49 49 48 49 48 47 47 46 46 46 44
49 50 53 53 52 51 51 50 51 51 51 50 50 50 50 50 50 49 49 48 49 49 48 48 48 47 46 46 46 46 46 45
52 54 55 54 54 52 50 50 51 51 51 50 50 50 50 49 49 48 48 48 48 49 48 47 47 46 44 44 43 43 44 43
53 53 53 55 53 52 50 50 50 50 51 51 51 50 49 49 48 47 48 47 48 47 46 45 45 44 42 43 42 43 42 42
53 56 56 55 53 53 51 51 51 50 50 50 49 49 48 48 48 49 48 46 47 46 45 44 42 39 39 38 39 41 41 41
55 55 55 54 53 53 52 51 51 49 49 48 48 47 48 48 48 47 47 46 45 45 44 44 42 40 40 37 35 36 36 36
53 54 54 53 53 52 51 50 49 48 48 48 48 48 48 48 48 48 48 46 45 45 44 41 39 38 38 39 38 38 37 36
53 51 50 51 50 50 49 47 46 45 45 48 48 47 45 48 48 48 47 44 43 43 40 40 39 39 39 38 39 38 38 37
47 47 47 48 48 48 47 45 44 43 44 46 47 46 45 47 47 46 43 44 41 40 40 39 39 38 39 38 38 37 36 36
45 46 45 45 44 45 44 43 42 43 43 44 47 45 46 46 45 42 42 42 41 41 41 40 39 38 38 37 38 38 39 35
42 42 42 43 45 44 43 43 43 42 44 44 44 43 41 41 42 42 39 38 39 38 40 40 40 40 38 37 36 37 36 35
41 43 44 44 45 46 45 43 42 43 43 42 42 41 40 40 40 38 37 37 37 37 39 39 39 39 37 36 35 35 35 35
MSLP
1017.57 1018.28 1018.95 1019.48 1019.99 1020.51 1021.09 1021.53 1021.83 1022.07 1022.43 1022.80 1022.91 1023.02 1023.05 1023.14 1023.20 1023.24 1023.26 1023.14 1023.15 1023.16 1022.80 1022.64 1022.45 1022.06 1021.90 1021.71 1021.29 1020.77 1020.39 1019.98
1019.00 1019.23 1020.08 1020.75 1021.08 1021.46 1021.85 1022.03 1022.34 1022.47 1022.72 1022.83 1022.90 1022.92 1023.22 1023.38 1023.45 1023.46 1023.72 1023.52 1023.37 1023.54 1023.49 1023.01 1022.76 1022.41 1022.26 1021.99 1021.72 1021.21 1020.44 1020.19
1020.40 1020.93 1020.80 1021.24 1021.53 1022.36 1022.71 1022.83 1022.91 1022.85 1023.05 1023.31 1023.45 1023.51 1023.64 1023.75 1023.70 1023.62 1024.05 1023.82 1023.56 1023.31 1023.91 1023.48 1023.11 1022.72 1022.46 1022.26 1022.00 1021.51 1021.03 1020.61
1020.60 1021.43 1021.56 1021.88 1022.22 1022.99 1023.60 1023.77 1023.66 1023.64 1023.70 1023.65 1023.77 1023.89 1024.02 1024.04 1023.84 1023.79 1024.28 1024.02 1023.95 1023.67 1023.86 1023.89 1023.38 1023.03 1022.61 1022.43 1022.20 1021.89 1021.41 1021.01
1020.84 1021.84 1022.34 1022.23 1022.93 1023.93 1024.15 1024.32 1024.35 1024.35 1024.30 1024.29 1024.44 1024.37 1024.11 1024.28 1024.33 1024.29 1024.30 1024.27 1024.02 1023.95 1023.95 1024.02 1023.66 1023.18 1022.74 1022.45 1022.15 1022.07 1021.78 1021.05
1021.31 1021.83 1022.77 1022.61 1023.57 1024.57 1024.86 1024.86 1024.89 1025.03 1024.95 1024.90 1024.73 1024.53 1024.51 1024.38 1024.46 1024.65 1024.25 1023.81 1023.76 1023.97 1023.99 1023.88 1023.48 1023.04 1022.76 1022.58 1022.25 1021.96 1021.74 1021.42
1022.01 1022.41 1022.85 1023.22 1024.21 1024.51 1024.78 1025.45 1024.93 1025.19 1025.42 1025.12 1024.89 1025.00 1024.83 1024.61 1024.32 1024.29 1023.93 1023.46 1023.32 1023.78 1023.82 1023.50 1023.14 1022.79 1022.48 1022.23 1022.05 1021.84 1021.58 1021.28
1022.32 1022.87 1022.87 1023.25 1024.04 1024.44 1024.89 1025.21 1024.98 1025.45 1025.47 1025.14 1024.95 1025.15 1025.20 1024.87 1024.47 1024.03 1023.55 1023.25 1023.42 1023.49 1023.48 1023.15 1022.77 1022.51 1022.31 1022.10 1021.83 1021.55 1021.32 1021.17
1022.32 1022.75 1022.90 1023.29 1023.72 1024.36 1024.86 1024.90 1024.98 1025.11 1025.24 1025.31 1025.15 1025.05 1024.82 1024.78 1024.08 1023.93 1023.70 1023.55 1023.45 1023.29 1023.17 1022.87 1022.46 1022.24 1022.03 1021.80 1021.52 1021.27 1021.07 1020.81
1022.45 1022.29 1022.49 1023.06 1023.55 1024.27 1024.50 1024.80 1025.05 1025.12 1025.35 1025.24 1024.95 1024.67 1024.49 1024.49 1023.86 1023.86 1023.70 1023.54 1023.20 1022.91 1022.71 1022.41 1022.09 1021.76 1021.73 1021.49 1021.22 1021.00 1020.82 1020.60
1022.43 1022.53 1022.80 1023.14 1023.66 1024.15 1024.36 1025.08 1025.14 1025.52 1025.14 1024.81 1024.67 1024.43 1024.53 1024.15 1023.96 1023.76 1023.59 1023.30 1023.01 1022.79 1022.57 1022.26 1021.79 1021.52 1021.44 1021.18 1020.96 1020.73 1020.49 1020.21
1022.57 1022.36 1022.65 1023.11 1023.74 1024.15 1024.68 1025.04 1025.09 1025.23 1025.13 1024.86 1024.71 1024.74 1024.32 1024.10 1023.80 1023.47 1023.20 1023.09 1022.75 1022.53 1022.25 1021.85 1021.62 1021.46 1021.35 1021.15 1020.86 1020.43 1020.08 1019.78
1022.85 1022.98 1022.87 1023.33 1023.73 1024.25 1024.71 1024.96 1025.19 1025.35 1025.25 1025.13 1024.94 1024.62 1024.31 1023.91 1023.50 1023.23 1023.08 1022.91 1022.73 1022.36 1021.96 1021.57 1021.37 1021.24 1021.04 1020.84 1020.59 1020.27 1019.91 1019.57
1023.11 1023.20 1023.43 1023.62 1023.90 1024.36 1024.64 1024.87 1025.17 1025.43 1025.33 1025.02 1024.68 1024.38 1024.07 1023.71 1023.38 1023.06 1022.70 1022.61 1022.44 1021.86 1021.69 1021.53 1021.29 1021.02 1020.68 1020.37 1020.04 1019.64 1019.32 1019.09
1023.38 1023.81 1024.09 1024.22 1024.47 1024.67 1024.85 1025.31 1025.72 1025.67 1025.37 1024.93 1024.43 1024.13 1023.99 1023.58 1023.31 1022.97 1022.67 1022.59 1022.42 1021.91 1021.74 1021.35 1020.98 1020.61 1020.21 1019.82 1019.35 1019.03 1018.63 1018.38
1024.57 1024.89 1025.14 1025.28 1025.28 1025.34 1025.55 1025.96 1025.99 1025.83 1025.37 1024.87 1024.36 1024.06 1023.82 1023.47 1023.18 1022.88 1022.68 1022.33 1022.17 1021.89 1021.48 1021.06 1020.68 1020.29 1019.79 1019.42 1018.92 1018.40 1017.97 1017.54
1025.74 1025.83 1025.88 1025.90 1026.00 1026.04 1026.02 1026.11 1026.13 1025.81 1025.36 1024.93 1024.48 1024.17 1023.76 1023.42 1023.15 1022.94 1022.65 1022.31 1022.05 1021.72 1021.12 1020.70 1020.31 1019.90 1019.39 1018.97 1018.48 1017.78 1017.12 1016.73
1026.52 1026.65 1026.62 1026.57 1026.42 1026.33 1026.22 1026.21 1026.12 1025.87 1025.44 1025.12 1024.69 1024.29 1024.04 1023.67 1023.32 1022.92 1022.57 1022.18 1022.03 1021.62 1020.96 1020.50 1019.92 1019.39 1018.85 1018.37 1017.91 1017.28 1016.54 1015.97
1027.05 1027.11 1027.00 1026.91 1026.68 1026.40 1026.23 1026.21 1026.22 1025.99 1025.72 1025.55 1025.05 1024.57 1024.27 1023.87 1023.48 1023.12 1022.65 1022.23 1021.95 1021.47 1020.87 1020.35 1019.71 1019.08 1018.54 1017.88 1017.17 1016.52 1015.88 1015.15
Wind_Speed
11 6 4 4 6 7 6 5 6 6 6 6 5 4 4 4 4 5 7 6 9 7 6 7 6 5 5 6 7 6 7 8
5 8 8 10 9 9 8 10 7 5 3 1 1 2 2 3 4 7 7 7 8 8 6 7 6 6 6 6 6 7 6 6
11 8 11 13 13 11 10 10 9 8 5 3 3 2 2 3 3 5 7 8 8 7 8 7 7 6 7 7 7 5 5 5
11 10 12 12 14 10 9 9 9 8 8 4 3 2 1 2 3 4 5 6 6 7 7 7 7 6 6 6 6 6 6 6
13 13 11 12 13 9 7 7 7 8 8 5 5 4 4 3 3 3 3 4 5 5 6 6 7 6 7 6 6 6 6 7
14 12 11 14 9 6 4 5 7 7 6 6 4 5 3 3 3 5 4 3 4 5 5 5 6 5 6 7 8 8 6 7
13 10 10 9 4 4 5 1 5 5 5 5 6 6 6 5 3 4 4 3 4 5 6 6 7 7 7 7 8 9 8 8
9 6 7 2 6 5 4 2 4 3 5 5 4 5 6 6 6 5 7 6 5 7 8 7 8 8 8 8 8 9 9 8
6 4 6 1 5 4 3 2 3 4 5 6 5 6 4 6 5 6 6 6 7 9 7 9 11 10 8 8 7 7 9 8
4 1 4 4 2 4 3 2 4 4 5 6 6 5 6 7 7 6 5 6 5 8 10 12 11 10 8 9 7 9 9 9
1 5 6 4 2 3 3 3 3 5 6 6 7 8 7 6 5 6 6 6 8 10 11 12 12 9 8 9 8 9 9 8
4 8 3 3 3 3 4 3 4 7 8 9 9 8 6 5 4 4 5 6 7 10 11 11 10 7 6 7 10 11 10 11
5 5 2 2 4 4 2 1 2 5 7 7 7 6 6 6 7 8 7 8 8 10 11 11 10 8 9 7 7 9 10 10
1 4 5 5 3 2 1 1 3 5 6 6 7 7 7 8 8 9 8 8 9 10 11 11 10 8 8 9 9 10 9 9
6 7 9 9 7 5 2 3 4 5 5 6 8 7 6 7 8 9 9 6 9 12 10 10 9 9 10 10 10 9 11 9
10 10 10 11 11 8 6 5 4 5 6 8 9 8 5 7 7 8 8 7 7 8 9 9 9 9 7 11 12 10 10 11
9 10 10 10 9 7 4 3 4 6 8 10 10 9 9 10 10 9 8 8 9 11 11 11 11 8 13 16 15 12 15 11
9 9 9 10 9 6 5 4 5 7 10 10 11 10 10 10 11 11 9 5 9 10 11 12 11 11 14 18 18 13 12 12
7 7 8 9 10 10 6 4 5 9 11 12 12 11 10 10 11 10 10 5 8 8 11 11 11 10 17 18 20 12 11 12
Wind_Direction
219 205 185 167 112 99 101 92 102 99 101 105 102 92 64 46 43 41 30 26 20 10 9 7 2 1 2 354 333 314 287 283
74 90 89 88 69 80 81 86 73 98 100 89 48 32 27 37 30 34 18 20 19 10 351 351 354 354 349 344 332 325 311 323
52 49 81 91 92 84 76 75 71 63 56 44 14 358 35 21 27 38 17 16 15 10 352 351 357 346 348 349 342 322 297 335
114 95 95 98 77 65 60 57 56 53 35 16 1 351 273 298 21 16 2 4 5 6 353 343 345 341 339 338 335 329 305 300
118 116 102 96 80 61 61 58 51 44 32 20 2 331 332 356 332 327 316 340 360 357 344 332 330 332 329 325 321 314 300 293
118 108 111 82 88 85 66 43 48 28 18 9 349 349 343 335 307 296 299 320 336 330 320 310 313 316 316 307 306 299 287 286
96 97 85 83 117 136 94 293 61 25 351 12 10 347 335 310 300 289 297 316 318 289 296 302 306 303 303 309 304 289 283 279
99 66 43 28 172 158 159 45 22 341 335 346 345 307 298 287 294 307 320 320 310 304 298 300 312 306 297 299 299 296 291 281
101 121 216 243 151 161 190 136 343 342 338 321 298 279 281 287 308 319 313 307 300 310 303 302 310 307 298 296 293 293 293 283
100 167 14 23 169 186 155 10 317 345 320 309 305 297 304 306 320 308 304 298 311 319 318 317 317 310 304 294 287 288 286 284
289 323 316 284 183 173 133 242 317 328 339 344 331 327 309 319 312 311 312 325 325 326 322 319 318 308 307 306 292 288 280 279
251 267 300 257 200 176 200 232 12 5 360 356 348 330 335 324 308 311 309 306 318 323 317 321 318 298 300 304 302 296 291 286
253 297 323 238 218 214 224 37 13 4 358 352 347 335 324 317 310 314 322 329 324 327 329 324 324 311 302 287 283 288 289 287
50 336 350 347 321 287 224 92 23 351 340 339 343 335 330 334 335 335 326 329 328 331 340 336 320 304 302 298 288 282 282 274
28 36 38 34 30 5 349 68 18 351 339 330 334 339 335 339 343 347 336 333 334 342 331 319 318 310 302 293 293 290 290 278
50 42 36 29 23 22 60 46 17 349 353 336 332 336 320 329 333 341 339 325 314 328 317 323 328 323 311 314 303 289 278 273
41 39 31 25 17 17 43 29 358 354 351 346 339 343 340 333 331 325 325 329 341 336 336 335 326 315 308 305 301 298 296 286
36 24 26 12 2 356 348 348 1 357 359 354 351 347 347 337 334 335 324 312 338 333 344 337 329 320 305 304 306 297 289 279
39 30 19 14 10 8 13 4 28 14 13 3 356 348 343 339 342 340 334 353 332 333 333 328 326 319 314 311 308 297 291 285